Location: Gwatt
(46.7204°N, 7.6223°E)
Time: 22:00:08
(UTC+00:00)

Courier 1B Rocket - All Passes

Search period start: 21 January 2021 00:00
Search period end: 31 January 2021 00:00
Orbit: 920 x 1202 km, 28.2° (Epoch: 20 January)

Date Brightness Start Highest point End Pass type
(mag) Time Alt. Az. Time Alt. Az. Time Alt. Az.
21 Jan - 06:59:13 10° S 07:01:19 11° SSE 07:03:27 10° SE daylight
21 Jan - 08:48:55 10° SW 08:53:32 18° S 08:58:18 10° SE daylight
21 Jan - 10:41:36 10° SW 10:45:56 16° S 10:50:20 10° SSE daylight
22 Jan - 07:48:38 10° SSW 07:52:45 16° S 07:57:00 10° SE daylight
22 Jan - 09:40:32 10° SW 09:45:06 17° S 09:49:47 10° SSE daylight
22 Jan - 11:35:33 10° SW 11:37:24 11° SSW 11:39:16 10° S daylight
23 Jan - 06:48:48 10° SSW 06:52:01 14° SSE 06:55:21 10° SE daylight
23 Jan - 08:39:47 10° SW 08:44:17 18° S 08:48:58 10° SE daylight
23 Jan - 10:33:15 10° SW 10:36:37 13° SSW 10:40:03 10° SSE daylight
24 Jan - 05:50:05 10° S 05:51:21 11° SSE 05:52:39 10° SSE visible
24 Jan - 07:39:16 10° SSW 07:43:30 17° S 07:47:54 10° SE daylight
24 Jan - 09:31:52 10° SW 09:35:50 15° S 09:39:54 10° SSE daylight
25 Jan - 06:39:05 10° SSW 06:42:47 15° S 06:46:35 10° SE daylight
25 Jan - 08:30:53 10° SW 08:35:03 16° S 08:39:21 10° SSE daylight
25 Jan - 10:26:32 10° SSW 10:27:19 10° SSW 10:28:07 10° SSW daylight
26 Jan - 05:39:23 10° S 05:42:06 13° SSE 05:44:52 10° SE visible
26 Jan - 07:30:12 10° SW 07:34:17 16° S 07:38:32 10° SE daylight
26 Jan - 09:23:45 10° SW 09:26:34 12° SSW 09:29:27 10° S daylight
27 Jan - 06:29:46 10° SSW 06:33:34 16° S 06:37:29 10° SE visible
27 Jan - 08:22:22 10° SW 08:25:49 14° S 08:29:23 10° SSE daylight
28 Jan - 05:29:39 10° SSW 05:32:53 14° S 05:36:12 10° SE visible
28 Jan - 07:21:24 10° SW 07:25:06 15° S 07:28:53 10° SSE daylight
29 Jan - 04:30:03 10° S 04:32:15 12° SSE 04:34:28 10° SE visible
29 Jan - 06:20:45 10° SW 06:24:23 15° S 06:28:08 10° SSE visible
29 Jan - 08:14:33 10° SSW 08:16:35 11° SSW 08:18:39 10° S daylight
30 Jan - 05:20:20 10° SSW 05:23:42 15° S 05:27:10 10° SE visible
30 Jan - 07:13:01 10° SW 07:15:54 13° S 07:18:50 10° SSE daylight
